Wind_Speed
22 20 18 22 21 21 22 23 27 15 20 19 18 20 23 26 27 26 26 28 31 33 35 35 20 21 20 21 21 21 21 23 27 29 30 28 21 15 11 12 12 17 18 15 11 4 8 13 15
25 23 22 24 23 22 26 25 26 28 29 31 26 25 30 35 26 31 28 29 32 34 37 28 19 17 18 14 14 13 15 21 24 24 24 19 16 14 15 13 15 18 15 13 7 8 2 5 8
26 23 26 25 25 25 22 27 28 26 29 30 29 26 30 31 30 32 28 29 30 33 31 19 21 18 18 13 16 18 18 20 19 19 18 12 14 19 19 17 17 18 22 18 4 2 2 4 5
26 25 23 26 26 25 28 29 30 35 21 20 24 25 20 25 29 31 31 29 31 33 26 18 20 21 20 16 20 20 17 15 14 13 10 13 22 22 20 20 21 21 23 26 17 1 3 4 4
32 26 17 13 17 19 24 26 33 26 22 18 20 20 28 32 35 32 31 32 31 25 20 21 21 21 21 17 15 13 13 10 9 9 13 20 20 23 25 21 18 22 21 25 24 14 4 3 2
34 26 21 19 14 20 20 24 26 24 20 20 24 30 37 38 35 31 32 30 24 22 23 21 18 22 12 9 11 11 7 9 12 14 18 23 22 23 26 24 26 25 24 24 29 23 8 5 3
35 32 23 23 20 15 30 29 31 31 35 36 36 40 42 42 33 31 29 24 23 25 23 16 14 13 8 9 7 10 11 14 14 16 22 25 21 18 23 23 24 26 27 21 24 32 18 6 0
37 35 35 36 29 25 23 32 33 35 40 41 38 39 36 32 32 29 23 23 25 24 16 10 11 5 6 7 14 13 16 16 17 22 21 16 14 17 19 20 22 25 28 25 20 29 28 12 5
33 35 37 40 35 39 43 35 35 43 43 37 37 31 28 29 26 22 22 25 21 14 7 6 3 5 10 15 14 16 16 18 18 19 13 11 12 15 18 17 16 19 24 24 23 23 25 24 18
26 27 31 35 39 42 48 46 35 29 30 36 37 29 25 23 21 19 21 19 11 6 4 1 2 10 15 14 14 14 15 15 15 12 10 11 7 9 14 15 15 15 19 17 20 19 20 19 18
23 27 29 34 38 39 42 46 46 45 47 39 35 27 25 19 17 17 18 7 5 3 0 1 7 15 15 12 12 15 16 14 10 8 6 2 4 8 13 13 12 11 14 14 14 14 10 13 13
15 16 19 23 22 27 37 42 43 40 36 32 25 17 20 19 16 15 9 3 4 3 2 6 13 17 14 12 15 14 12 10 8 5 4 5 7 9 14 15 14 12 11 10 10 12 12 11 13
14 16 17 17 18 19 25 25 29 28 24 20 20 17 17 17 14 5 5 7 6 5 6 13 15 15 14 16 16 11 6 4 5 5 7 8 10 14 16 17 17 15 12 10 9 10 11 12 18
17 15 13 15 13 17 23 21 21 20 18 16 20 17 16 17 13 5 5 5 7 7 12 16 16 16 16 14 11 7 4 5 8 10 11 14 15 16 18 18 19 18 16 13 13 15 14 14 19
17 17 12 11 15 17 18 19 21 20 19 16 17 18 14 15 13 7 6 8 7 15 17 17 21 20 15 12 11 8 6 6 9 12 14 13 14 16 17 18 19 18 17 17 15 13 14 15 15
20 15 13 10 13 16 16 20 15 14 20 16 16 17 12 10 11 10 7 12 18 19 20 23 20 17 15 14 10 7 5 7 11 11 11 13 14 14 17 19 19 20 21 22 20 20 19 17 18
21 18 14 10 10 15 16 14 10 15 17 16 16 15 13 14 12 11 14 21 22 22 23 20 18 17 14 11 9 5 4 8 10 10 12 13 13 16 19 20 22 24 24 25 25 23 22 21 23
23 21 19 12 13 8 12 8 7 8 14 14 15 12 14 15 14 16 23 27 26 23 21 19 19 17 13 9 7 5 3 6 8 9 11 11 12 14 17 19 23 25 28 29 28 28 26 24 23
31 25 23 17 16 9 8 11 9 5 10 13 12 12 12 10 15 20 26 26 27 26 23 19 16 14 12 9 6 5 2 5 9 9 10 10 11 14 16 18 22 24 25 27 29 30 29 29 26
38 33 30 22 18 14 7 10 11 7 9 11 13 11 12 17 21 27 26 24 24 27 23 19 17 14 11 9 5 3 2 4 8 8 8 10 12 12 14 17 20 22 25 26 30 33 34 33 32
45 44 37 30 20 21 15 11 11 10 5 7 8 11 15 21 24 22 23 22 23 26 22 18 17 15 13 9 6 2 2 5 8 8 9 11 12 15 17 20 22 23 27 30 32 35 34 33 34
48 53 42 36 27 25 19 14 13 8 8 8 10 12 16 24 20 20 21 18 17 21 17 14 14 15 15 14 10 5 4 5 7 8 9 10 14 14 17 18 20 24 28 30 33 33 32 33 35
58 50 47 42 35 27 22 17 14 17 13 11 13 16 18 17 16 18 22 20 19 22 19 14 13 15 17 16 13 9 6 7 8 9 12 13 14 15 17 19 22 25 28 30 31 31 32 34 34
47 50 49 48 41 30 31 26 23 21 19 18 17 18 19 17 18 19 22 24 20 18 17 16 17 18 18 18 17 14 10 10 9 11 15 16 18 18 20 22 23 26 29 30 32 33 35 35 35
27 34 46 48 42 41 42 31 34 28 25 27 24 22 21 20 23 24 21 20 21 20 19 18 18 19 18 20 19 17 15 15 12 12 16 18 17 19 20 23 25 27 29 31 33 34 34 34 35
25 22 21 39 51 51 48 32 44 37 32 30 27 27 26 25 28 29 27 23 22 22 20 18 17 17 17 18 20 21 20 20 17 13 16 20 19 20 21 23 25 27 29 32 34 36 36 34 35
31 18 28 20 32 45 49 45 46 38 38 37 35 32 30 31 33 34 31 28 28 25 22 21 22 22 21 20 21 23 24 22 21 19 19 23 21 23 23 26 28 29 32 34 36 38 39 39 37
29 37 26 21 20 22 47 51 52 48 45 45 42 37 36 34 34 36 38 36 35 31 28 29 29 30 29 27 25 26 27 27 23 23 25 27 26 25 27 29 31 32 34 36 39 40 42 42 43
34 33 30 27 20 19 24 48 62 56 55 49 47 44 42 39 39 40 39 41 41 38 37 36 38 37 35 35 29 29 30 31 28 27 29 30 30 29 30 31 32 34 37 39 43 46 49 50 48
40 33 28 18 28 24 18 31 56 62 57 53 49 51 48 46 46 42 42 42 44 45 42 42 40 37 38 39 33 31 34 33 33 33 33 34 34 33 34 34 35 36 39 42 46 51 51 59 50
Wind_Direction
186 188 184 193 205 210 190 222 246 274 274 269 271 273 277 271 273 282 287 293 301 311 314 319 317 311 309 306 306 301 300 314 314 322 333 338 351 15 30 23 357 350 345 345 9 35 91 101 91
195 194 202 208 217 225 222 238 252 265 257 269 273 262 273 292 301 302 300 300 308 311 313 320 323 326 325 326 331 321 320 321 322 332 342 359 17 37 41 27 14 7 356 328 359 20 174 127 91
212 212 217 221 227 236 241 247 263 276 290 274 267 275 292 289 292 300 304 309 306 314 315 324 322 318 319 329 326 321 327 327 332 343 353 19 51 63 58 46 39 32 31 34 344 350 129 174 180
213 219 226 223 251 249 250 258 271 268 275 290 277 276 286 290 294 296 302 305 307 309 314 327 329 321 318 312 326 327 327 342 348 2 30 71 81 58 64 57 41 19 31 39 37 288 144 185 172
220 217 226 202 245 252 249 256 277 264 260 269 262 259 302 303 298 299 297 304 306 308 319 324 328 328 326 323 334 337 351 1 31 52 86 85 84 70 55 57 47 37 32 31 33 38 171 164 143
222 211 201 182 200 253 257 254 255 265 252 244 256 265 297 301 298 299 302 306 305 313 320 327 333 331 340 354 342 0 42 73 85 95 94 95 83 69 55 48 44 43 40 38 44 41 149 143 117
224 210 207 219 201 226 237 244 260 258 263 263 272 278 288 298 296 298 303 301 313 321 327 336 331 336 357 351 28 80 87 94 99 95 103 94 86 76 53 47 41 41 37 33 47 51 86 127 78
225 230 230 236 231 227 241 242 251 261 265 263 278 290 289 290 294 297 301 311 316 318 329 334 338 344 6 76 97 92 97 102 99 102 101 107 83 58 42 47 43 39 37 43 60 59 71 96 53
231 233 236 238 244 254 268 272 264 253 272 283 284 285 285 286 294 294 305 312 315 330 357 349 335 11 105 107 96 108 114 106 112 108 70 96 92 56 45 40 40 39 42 48 60 73 77 73 69
239 243 244 253 258 266 268 267 279 276 276 279 275 278 282 290 288 301 308 308 330 10 24 76 17 108 115 101 104 115 114 113 114 110 72 61 65 32 24 28 34 48 47 56 71 73 72 58 52
235 243 248 256 259 267 267 268 270 273 275 273 271 277 283 285 288 297 301 317 16 8 205 166 122 118 118 109 115 119 110 103 105 96 82 59 6 359 348 9 32 48 52 69 63 60 61 36 32
223 235 245 254 261 270 269 270 270 270 269 266 268 268 268 267 276 292 274 341 339 288 217 142 130 124 122 118 129 129 117 75 67 67 37 3 343 340 346 359 10 25 44 47 52 53 52 22 22
233 236 245 260 270 291 283 273 270 263 255 256 250 249 256 263 270 278 319 316 277 253 174 141 131 128 126 126 135 134 114 68 57 36 21 6 3 4 12 8 18 27 34 31 33 27 22 25 12
247 252 268 280 295 296 292 270 257 251 244 250 256 241 253 255 251 231 299 268 242 206 160 142 133 131 129 126 123 113 98 48 38 26 15 20 18 22 27 29 35 31 33 25 16 17 10 3 17
250 259 266 294 302 304 304 288 249 243 247 243 247 238 240 261 239 218 283 219 209 165 148 139 132 131 130 128 124 121 87 51 27 32 35 29 29 31 33 28 26 23 22 18 12 6 15 8 14
248 251 262 280 302 316 314 303 279 256 253 238 237 240 236 233 228 223 240 191 162 154 142 140 139 136 139 138 132 119 85 53 40 28 31 43 40 33 32 24 20 20 19 20 15 7 356 352 340
240 248 247 265 298 319 326 312 307 260 246 242 228 225 225 223 239 232 205 168 159 153 144 147 144 140 143 143 139 120 75 55 42 31 29 39 35 35 23 24 24 25 25 21 14 10 5 355 345
244 246 248 239 260 284 315 297 299 272 233 238 220 224 237 244 242 208 188 163 157 153 150 154 151 153 152 147 145 137 97 60 47 39 31 27 27 31 29 25 28 28 25 22 16 14 8 358 350
249 245 249 238 251 267 318 289 255 250 247 252 229 227 235 219 200 184 182 165 158 158 161 163 163 158 151 158 172 182 95 55 36 36 28 19 16 24 17 18 18 20 17 13 10 5 2 1 3
243 244 244 239 232 244 245 285 240 289 280 243 240 218 200 190 177 174 175 169 167 169 168 170 172 169 167 168 173 175 21 19 28 29 16 4 1 5 6 11 14 8 6 4 5 5 3 2 3
239 240 240 236 228 229 227 246 239 259 284 223 229 226 199 186 171 178 185 188 185 179 179 178 187 187 191 204 216 235 332 5 8 10 0 350 356 358 0 5 2 359 358 360 1 360 357 358 360
237 236 237 242 234 234 229 224 240 233 233 214 196 198 193 180 181 180 195 203 198 185 188 190 203 213 220 229 239 261 310 347 359 358 342 335 345 355 1 1 358 357 357 357 357 352 350 351 353
239 242 239 237 240 234 232 229 234 236 214 213 203 180 184 194 217 201 186 190 200 202 203 214 227 226 233 241 250 259 292 323 342 341 335 330 327 340 345 347 350 351 353 352 350 347 347 351 349
245 240 238 237 233 233 232 227 223 229 228 213 209 206 202 207 218 212 196 189 200 222 229 220 221 227 235 241 244 252 269 294 316 331 328 327 330 339 340 339 344 348 348 347 348 345 346 347 347
252 252 242 238 233 228 229 219 227 221 224 227 211 217 219 212 213 208 207 207 202 213 229 234 231 234 235 245 253 261 265 275 289 315 320 320 327 331 335 332 341 344 341 343 344 342 343 342 344
263 257 256 239 233 230 233 225 232 225 219 223 226 230 227 219 218 212 206 205 211 207 213 230 241 241 246 246 257 263 265 274 283 297 309 307 319 323 325 328 334 339 341 341 341 339 338 339 341
252 269 250 249 249 236 238 233 237 237 234 226 224 227 228 221 220 221 218 216 223 223 226 238 248 256 255 257 260 263 270 276 284 293 298 299 313 318 322 323 328 334 336 337 336 334 333 336 336
252 251 261 261 248 249 235 231 233 230 230 232 228 224 229 230 230 225 225 226 233 240 243 249 254 260 263 260 264 267 270 275 283 292 293 295 305 312 315 318 323 329 331 332 330 327 329 330 328
252 255 254 257 264 262 241 229 232 230 229 228 235 230 228 233 236 235 232 236 237 240 245 251 257 258 260 262 261 267 268 275 282 287 291 293 298 305 309 313 319 324 328 328 326 326 326 326 320
248 250 252 249 256 256 253 241 234 236 235 234 231 236 238 235 236 239 244 243 246 246 244 248 249 256 259 262 258 264 269 274 280 283 287 288 294 299 302 308 314 320 323 324 323 321 323 325 323
Height
10989 10991 10993 10994 10995 10996 10996 10995 10995 10996 10997 10995 10995 10995 10995 10993 10991 10989 10987 10987 10985 10983 10981 10978 10977 10975 10973 10971 10968 10967 10966 10965 10962 10958 10953 10949 10945 10942 10941 10938 10936 10933 10931 10928 10928 10928 10927 10926 10925
10986 10988 10990 10991 10993 10993 10994 10995 10994 10995 10995 10994 10994 10994 10993 10991 10988 10986 10984 10983 10981 10980 10979 10977 10975 10972 10970 10968 10967 10965 10963 10962 10958 10954 10951 10948 10946 10944 10942 10940 10937 10934 10929 10926 10926 10926 10926 10926 10926
10984 10985 10986 10988 10989 10990 10993 10994 10992 10991 10989 10990 10991 10991 10990 10989 10986 10985 10981 10980 10979 10976 10976 10975 10972 10970 10969 10967 10965 10963 10961 10958 10955 10953 10951 10948 10947 10946 10944 10942 10938 10935 10931 10926 10923 10924 10925 10926 10926
10984 10983 10985 10987 10986 10988 10988 10988 10987 10988 10988 10987 10987 10988 10988 10987 10985 10982 10979 10978 10976 10976 10974 10972 10970 10968 10966 10964 10962 10961 10958 10956 10954 10953 10951 10951 10950 10949 10946 10943 10942 10937 10932 10927 10923 10922 10924 10925 10926
10980 10982 10984 10983 10983 10984 10984 10984 10984 10985 10984 10984 10984 10985 10984 10983 10982 10980 10977 10975 10974 10972 10971 10970 10967 10965 10964 10963 10961 10959 10957 10956 10954 10954 10954 10954 10953 10952 10948 10946 10944 10940 10935 10929 10925 10921 10924 10926 10928
10978 10981 10981 10978 10983 10982 10981 10979 10980 10981 10983 10981 10981 10981 10980 10980 10978 10977 10974 10973 10971 10970 10968 10967 10966 10965 10962 10961 10960 10959 10957 10956 10956 10956 10957 10955 10955 10954 10952 10950 10946 10942 10937 10932 10927 10923 10923 10928 10929
10977 10981 10982 10980 10978 10980 10981 10980 10979 10980 10981 10980 10980 10979 10978 10977 10976 10974 10972 10970 10968 10968 10967 10965 10965 10964 10962 10961 10960 10959 10958 10959 10959 10959 10959 10958 10957 10956 10954 10952 10950 10945 10940 10935 10931 10928 10927 10931 10930
10976 10978 10980 10979 10977 10977 10978 10977 10977 10980 10977 10975 10975 10975 10975 10975 10974 10971 10969 10968 10966 10966 10964 10964 10964 10964 10963 10962 10962 10962 10962 10962 10962 10962 10962 10960 10959 10958 10957 10955 10953 10949 10944 10938 10935 10934 10933 10933 10934
10973 10975 10976 10975 10974 10974 10972 10973 10975 10974 10971 10969 10973 10973 10974 10973 10971 10968 10967 10966 10965 10964 10964 10964 10963 10964 10964 10964 10964 10965 10964 10965 10965 10964 10964 10963 10962 10961 10959 10958 10956 10952 10948 10944 10940 10940 10940 10939 10939
10972 10973 10974 10973 10972 10970 10966 10967 10970 10968 10967 10968 10969 10970 10971 10970 10967 10966 10966 10965 10964 10964 10964 10964 10964 10965 10966 10967 10967 10967 10967 10968 10968 10967 10966 10965 10964 10962 10961 10959 10958 10954 10951 10949 10946 10943 10942 10943 10942
10970 10970 10971 10967 10966 10964 10959 10961 10961 10961 10961 10963 10963 10965 10966 10967 10965 10966 10966 10965 10965 10965 10965 10964 10965 10966 10968 10970 10970 10970 10970 10970 10970 10969 10967 10966 10965 10964 10962 10962 10960 10958 10954 10952 10951 10948 10946 10944 10942
10967 10967 10966 10963 10962 10958 10953 10953 10954 10953 10954 10955 10957 10961 10962 10963 10964 10965 10964 10964 10964 10965 10965 10965 10965 10968 10970 10971 10972 10972 10973 10972 10972 10971 10970 10968 10966 10966 10965 10964 10962 10960 10957 10955 10953 10951 10949 10946 10945
10964 10963 10962 10961 10957 10952 10947 10946 10946 10947 10950 10953 10954 10957 10958 10960 10962 10961 10962 10963 10964 10965 10966 10966 10966 10969 10971 10973 10974 10974 10974 10974 10973 10971 10971 10970 10968 10967 10966 10964 10963 10960 10959 10957 10955 10954 10951 10949 10947
10959 10960 10958 10958 10954 10948 10944 10940 10943 10944 10947 10951 10953 10952 10956 10959 10960 10960 10960 10962 10964 10966 10966 10966 10967 10970 10973 10974 10975 10976 10975 10974 10973 10972 10971 10970 10968 10968 10966 10965 10963 10961 10959 10958 10956 10954 10952 10950 10948
10955 10955 10955 10954 10951 10945 10942 10938 10941 10942 10945 10948 10949 10949 10953 10956 10957 10958 10958 10961 10964 10965 10967 10968 10969 10971 10974 10975 10975 10976 10976 10976 10975 10975 10973 10972 10970 10969 10967 10965 10964 10963 10961 10959 10956 10954 10952 10950 10947
10950 10952 10952 10952 10950 10948 10942 10938 10938 10940 10941 10944 10947 10946 10949 10953 10955 10956 10957 10959 10963 10966 10968 10970 10971 10973 10974 10975 10975 10976 10977 10977 10976 10976 10975 10974 10972 10970 10969 10968 10966 10963 10959 10957 10955 10953 10952 10950 10947
10946 10948 10949 10949 10947 10945 10941 10942 10937 10940 10942 10942 10945 10945 10947 10950 10953 10954 10955 10958 10962 10966 10969 10972 10973 10973 10974 10976 10976 10976 10977 10977 10977 10976 10975 10973 10971 10970 10970 10968 10966 10963 10960 10958 10955 10954 10952 10950 10947
10942 10943 10945 10947 10944 10946 10943 10940 10938 10941 10942 10941 10943 10944 10946 10948 10950 10952 10954 10956 10961 10966 10970 10973 10974 10975 10976 10976 10977 10978 10979 10979 10978 10977 10974 10973 10973 10972 10970 10969 10966 10964 10962 10959 10958 10954 10952 10949 10946
10936 10937 10939 10942 10942 10944 10943 10941 10941 10943 10941 10940 10940 10943 10944 10945 10949 10952 10957 10956 10959 10964 10970 10973 10974 10975 10975 10976 10977 10979 10979 10979 10977 10976 10974 10974 10973 10972 10970 10969 10967 10965 10964 10961 10959 10955 10951 10947 10945
10928 10931 10931 10936 10940 10942 10944 10942 10941 10940 10940 10939 10940 10943 10944 10946 10948 10952 10956 10959 10960 10964 10967 10970 10973 10974 10976 10977 10978 10978 10978 10978 10977 10976 10975 10974 10973 10973 10972 10970 10967 10965 10964 10962 10959 10955 10950 10947 10943
10917 10919 10924 10929 10935 10937 10942 10942 10941 10939 10940 10940 10939 10941 10944 10947 10950 10954 10956 10958 10961 10965 10967 10969 10972 10973 10976 10977 10978 10978 10979 10979 10978 10976 10975 10974 10973 10973 10970 10969 10967 10965 10963 10959 10957 10955 10951 10947 10942
10905 10902 10919 10924 10931 10932 10938 10942 10939 10937 10938 10940 10941 10943 10944 10949 10950 10952 10959 10961 10964 10966 10968 10971 10972 10973 10975 10977 10977 10977 10977 10977 10978 10976 10975 10973 10972 10972 10971 10969 10968 10965 10961 10958 10956 10954 10951 10945 10939
10887 10901 10911 10917 10926 10930 10934 10936 10938 10934 10935 10940 10942 10943 10947 10949 10952 10952 10952 10959 10964 10966 10967 10969 10970 10972 10974 10974 10975 10976 10976 10975 10975 10975 10974 10972 10972 10970 10970 10968 10965 10963 10960 10958 10955 10952 10948 10943 10938
10879 10892 10900 10907 10918 10928 10924 10928 10931 10931 10934 10938 10940 10942 10945 10947 10950 10951 10951 10951 10957 10963 10966 10967 10968 10969 10971 10971 10972 10972 10973 10973 10974 10973 10971 10970 10968 10967 10965 10964 10963 10961 10959 10957 10952 10948 10944 10940 10937
10875 10881 10890 10900 10911 10914 10912 10922 10919 10927 10931 10933 10936 10940 10942 10944 10947 10950 10952 10953 10953 10956 10961 10963 10965 10967 10967 10968 10968 10969 10971 10971 10972 10971 10968 10966 10965 10964 10963 10962 10960 10958 10957 10954 10949 10946 10942 10938 10934
10869 10875 10882 10885 10893 10899 10904 10923 10909 10919 10926 10928 10930 10935 10937 10938 10943 10946 10948 10951 10954 10954 10957 10960 10960 10961 10962 10964 10964 10965 10967 10967 10968 10968 10966 10964 10963 10962 10960 10958 10957 10956 10953 10950 10946 10943 10939 10936 10932
10863 10870 10867 10881 10885 10896 10903 10909 10907 10916 10920 10922 10925 10928 10930 10934 10937 10942 10943 10946 10949 10952 10955 10957 10958 10958 10958 10958 10960 10961 10962 10963 10963 10964 10962 10959 10960 10958 10957 10955 10952 10951 10948 10946 10943 10939 10936 10932 10928
10860 10857 10866 10873 10877 10883 10888 10898 10896 10903 10907 10910 10918 10922 10923 10928 10932 10935 10937 10939 10943 10947 10950 10953 10954 10954 10954 10954 10954 10956 10958 10959 10959 10960 10958 10956 10955 10954 10952 10950 10948 10946 10944 10940 10938 10935 10930 10926 10923
10848 10854 10859 10864 10871 10873 10877 10881 10878 10886 10892 10902 10908 10914 10917 10920 10923 10927 10931 10933 10936 10941 10942 10945 10947 10948 10949 10950 10949 10951 10952 10953 10954 10954 10953 10951 10950 10949 10947 10945 10944 10942 10940 10936 10931 10926 10922 10919 10914
10838 10846 10853 10858 10864 10867 10870 10866 10865 10875 10886 10896 10902 10905 10910 10914 10916 10920 10924 10929 10932 10933 10936 10938 10939 10940 10942 10943 10942 10943 10945 10947 10948 10948 10947 10945 10944 10943 10942 10940 10940 10937 10935 10931 10925 10919 10914 10907 10902